Zurück zum Katalog

STARLINK-30227

AktivKommunikationVLEO
NORAD 57505·PAYLOAD·🇺🇸 United States

Gestartet Aug 7, 2023 von Cape Canaveral Space Force Station

Loading…

Nächste Überflüge (nächste 24 Stunden)

TLE

AktuellSource: CelesTrak SupGP

Epoche: Sep 14, 2026, 20:45 UTC

1 57505C 23113L   26257.86506944  .00074318  00000+0  23013-2 0  2576
2 57505  42.9955  17.3367 0018424 322.0729 108.3094 15.32425989    13

Verfolge STARLINK-30227 in Echtzeit mit AllMySat

Download on the App Store